OK1VCF-5 Weather Reports


time (UTC)temp
F
wind
direction
speed
knots
gust
knots
rain 1hr
in
rain 24hr
in
rain mn
in
humidity
%
barometer
mb
20260905222235 56 0 0.0 0.0 0.00 0.00 0.00 72 1028.2
20260905215406 58 0 0.0 0.0 0.00 0.00 0.00 66 1028.0
20260905215234 58 0 0.0 0.0 0.00 0.00 0.00 66 1028.0
20260905213730 59 0 0.0 0.0 0.00 0.00 0.00 63 1027.9
20260905212231 58 0 0.0 0.0 0.00 0.00 0.00 66 1027.8
20260905210731 59 0 0.0 0.0 0.00 0.00 0.00 64 1027.6
20260905205228 60 0 0.0 0.0 0.00 0.00 0.00 62 1027.5
20260905203729 60 0 0.0 0.0 0.00 0.00 0.00 64 1027.4
20260905202226 60 0 0.0 0.0 0.00 0.00 0.00 62 1027.3
20260905200731 61 0 0.0 0.0 0.00 0.00 0.00 59 1027.2
20260905195225 62 0 0.0 0.0 0.00 0.00 0.00 58 1027.0
20260905193724 62 0 0.0 0.0 0.00 0.00 0.00 57 1026.6
20260905192224 62 0 0.0 0.0 0.00 0.00 0.00 56 1026.5
20260905190727 0 0 0.0 0.0 0.00 0.00 0.00
20260905190722 64 0 0.0 0.0 0.00 0.00 0.00 54 1026.4
20260905185222 64 0 0.0 0.0 0.00 0.00 0.00 52 1026.2
20260905183723 65 0 0.0 0.0 0.00 0.00 0.00 52 1025.9
20260905182221 66 0 0.0 0.0 0.00 0.00 0.00 52 1025.8
20260905180719 66 0 0.0 0.0 0.00 0.00 0.00 51 1025.5
20260905175218 66 0 0.0 0.0 0.00 0.00 0.00 52 1025.1
20260905173719 68 0 0.0 0.0 0.00 0.00 0.00 52 1024.8
20260905172217 68 0 0.0 0.0 0.00 0.00 0.00 52 1024.6
20260905170717 70 0 0.0 0.0 0.00 0.00 0.00 50 1024.2
20260905165216 70 0 0.0 0.0 0.00 0.00 0.00 50 1023.9
20260905163714 72 0 0.0 0.0 0.00 0.00 0.00 49 1023.7
20260905162217 72 0 0.0 0.0 0.00 0.00 0.00 49 1023.6
20260905161308 72 0 0.0 0.0 0.00 0.00 0.00 50 1023.4
20260905160715 72 0 0.0 0.0 0.00 0.00 0.00 50 1023.4
20260905155214 72 0 0.0 0.0 0.00 0.00 0.00 49 1023.2
20260905153714 75 0 0.0 0.0 0.00 0.00 0.00 48 1023.2
20260905152216 75 0 0.0 0.0 0.00 0.00 0.00 48 1023.2
20260905150712 74 0 0.0 0.0 0.00 0.00 0.00 48 1023.2
20260905143708 74 0 0.0 0.0 0.00 0.00 0.00 50 1023.3
20260905142207 76 0 0.0 0.0 0.00 0.00 0.00 48 1023.1
20260905135208 76 0 0.0 0.0 0.00 0.00 0.00 50 1023.4
20260905133707 74 0 0.0 0.0 0.00 0.00 0.00 49 1023.5
20260905133625 76 0 0.0 0.0 0.00 0.00 0.00 49 1023.4
20260905132205 76 0 0.0 0.0 0.00 0.00 0.00 49 1023.4
20260905125203 74 0 0.0 0.0 0.00 0.00 0.00 52 1023.6
20260905123703 74 0 0.0 0.0 0.00 0.00 0.00 50 1023.8
20260905122203 75 0 0.0 0.0 0.00 0.00 0.00 52 1024.0
20260905120700 74 0 0.0 0.0 0.00 0.00 0.00 49 1024.0
20260905115201 74 0 0.0 0.0 0.00 0.00 0.00 50 1024.2
20260905113700 74 0 0.0 0.0 0.00 0.00 0.00 50 1024.2
20260905112252 72 0 0.0 0.0 0.00 0.00 0.00 52 1024.2
20260905112158 72 0 0.0 0.0 0.00 0.00 0.00 52 1024.2
20260905110658 73 0 0.0 0.0 0.00 0.00 0.00 52 1024.4
20260905105158 74 0 0.0 0.0 0.00 0.00 0.00 52 1024.4
20260905104206 72 0 0.0 0.0 0.00 0.00 0.00 53 1024.4
20260905103656 72 0 0.0 0.0 0.00 0.00 0.00 53 1024.4
20260905102414 74 0 0.0 0.0 0.00 0.00 0.00 53 1024.2
20260905102155 74 0 0.0 0.0 0.00 0.00 0.00 53 1024.2
20260905100654 71 0 0.0 0.0 0.00 0.00 0.00 55 1024.4
20260905095153 70 0 0.0 0.0 0.00 0.00 0.00 58 1024.4
20260905092153 72 0 0.0 0.0 0.00 0.00 0.00 57 1024.2
20260905085242 70 0 0.0 0.0 0.00 0.00 0.00 62 1024.2
20260905085152 70 0 0.0 0.0 0.00 0.00 0.00 62 1024.2
20260905083653 68 0 0.0 0.0 0.00 0.00 0.00 64 1024.2
20260905082151 68 0 0.0 0.0 0.00 0.00 0.00 66 1024.3
20260905080652 67 0 0.0 0.0 0.00 0.00 0.00 69 1024.3
20260905075149 66 0 0.0 0.0 0.00 0.00 0.00 70 1024.0
20260905073646 64 0 0.0 0.0 0.00 0.00 0.00 72 1024.0
20260905072247 63 0 0.0 0.0 0.00 0.00 0.00 74 1024.0
20260905072150 63 0 0.0 0.0 0.00 0.00 0.00 74 1024.0
20260905070645 62 0 0.0 0.0 0.00 0.00 0.00 78 1023.9
20260905065145 61 0 0.0 0.0 0.00 0.00 0.00 80 1024.0
20260905063645 60 0 0.0 0.0 0.00 0.00 0.00 84 1024.0
20260905060642 58 0 0.0 0.0 0.00 0.00 0.00 87 1023.6
20260905055146 58 0 0.0 0.0 0.00 0.00 0.00 88 1023.6
20260905053744 59 0 0.0 0.0 0.00 0.00 0.00 88 1023.4
20260905053643 59 0 0.0 0.0 0.00 0.00 0.00 88 1023.4
20260905052244 58 0 0.0 0.0 0.00 0.00 0.00 90 1023.1
20260905052139 58 0 0.0 0.0 0.00 0.00 0.00 90 1023.1
20260905045138 58 0 0.0 0.0 0.00 0.00 0.00 89 1022.2
20260905042136 58 0 0.0 0.0 0.00 0.00 0.00 86 1022.4
20260905040737 58 0 0.0 0.0 0.00 0.00 0.00 88 1022.7
20260905040635 58 0 0.0 0.0 0.00 0.00 0.00 88 1022.7
20260905035135 58 0 0.0 0.0 0.00 0.00 0.00 87 1022.6
20260905033749 60 0 0.0 0.0 0.00 0.00 0.00 82 1022.6
20260905033635 60 0 0.0 0.0 0.00 0.00 0.00 82 1022.6
20260905032137 60 0 0.0 0.0 0.00 0.00 0.00 82 1022.0
20260905032134 60 0 0.0 0.0 0.00 0.00 0.00 82 1022.0
20260905030736 60 0 0.0 0.0 0.00 0.00 0.00 86 1021.8
20260905030632 60 0 0.0 0.0 0.00 0.00 0.00 86 1021.8
20260905025131 60 0 0.0 0.0 0.00 0.00 0.00 88 1021.8
20260905023631 60 0 0.0 0.0 0.00 0.00 0.00 86 1021.8
20260905020726 64 0 0.0 0.0 0.00 0.00 0.00 76 1021.1
20260905020631 64 0 0.0 0.0 0.00 0.00 0.00 76 1021.1
20260905015130 64 0 0.0 0.0 0.00 0.00 0.00 75 1020.4
20260905013627 64 0 0.0 0.0 0.00 0.00 0.00 74 1020.2
20260905012245 64 0 0.0 0.0 0.00 0.00 0.00 70 1020.1
20260905012130 64 0 0.0 0.0 0.00 0.00 0.00 70 1020.1
20260905010745 65 0 0.0 0.0 0.00 0.00 0.00 69 1020.2
20260905010626 65 0 0.0 0.0 0.00 0.00 0.00 69 1020.2
20260905003625 66 0 0.0 0.0 0.00 0.00 0.00 67 1020.0
20260905002123 66 0 0.0 0.0 0.00 0.00 0.00 65 1020.0
20260905000623 66 0 0.0 0.0 0.00 0.00 0.00 66 1019.9
20260904235122 66 0 0.0 0.0 0.00 0.00 0.00 67 1019.8
20260904233621 68 0 0.0 0.0 0.00 0.00 0.00 66 1019.2
20260904230620 73 0 0.0 0.0 0.00 0.00 0.00 60 1016.8
20260904225248 72 0 0.0 0.0 0.00 0.00 0.00 60 1016.6
20260904225119 72 0 0.0 0.0 0.00 0.00 0.00 60 1016.6
20260904223618 73 0 0.0 0.0 0.00 0.00 0.00 58 1016.4